DAL8718 CYXU-ZZZZ

Flight info

Callsign DAL8718
Flight time N/A
Altitude 3000
Route CYWG/36
Aircraft CJ4

Departure

Time 2026-05-07 01:33
Airport London International Airport (CYXU)

Arrival

Time N/A
Airport ZZZZ
Time Latitude Longitude Altitude Speed Heading
2026-05-07 01:27 43.02907 -81.14828 895 ft 0 kts 77°
2026-05-07 01:30 43.02909 -81.14818 895 ft 6 kts 71°
2026-05-07 01:30 43.02898 -81.14726 896 ft 14 kts 138°
2026-05-07 01:31 43.02794 -81.14601 896 ft 25 kts 138°
2026-05-07 01:31 43.02639 -81.14413 897 ft 35 kts 139°
2026-05-07 01:31 43.02476 -81.14217 895 ft 35 kts 139°
2026-05-07 01:31 43.02341 -81.14056 893 ft 21 kts 139°
2026-05-07 01:32 43.02337 -81.13930 891 ft 21 kts 51°
2026-05-07 01:32 43.02441 -81.13852 893 ft 10 kts 312°
2026-05-07 01:32 43.02477 -81.13900 892 ft 1 kts 319°
2026-05-07 01:32 43.02616 -81.14068 896 ft 77 kts 318°
2026-05-07 01:33 43.03304 -81.14885 1119 ft 168 kts 319°
2026-05-07 01:33 43.04290 -81.16067 1725 ft 208 kts 318°
2026-05-07 01:33 43.05271 -81.17589 2272 ft 219 kts 301°
2026-05-07 01:33 43.05838 -81.19505 2949 ft 218 kts 281°
2026-05-07 01:34 43.05873 -81.21595 3582 ft 224 kts 265°
2026-05-07 01:34 43.05751 -81.23757 4056 ft 232 kts 265°
2026-05-07 01:34 43.05622 -81.26002 4500 ft 235 kts 265°
2026-05-07 01:34 43.05426 -81.28251 5010 ft 234 kts 261°
2026-05-07 01:35 43.05132 -81.30504 5152 ft 251 kts 258°
2026-05-07 01:35 43.04712 -81.32907 5104 ft 268 kts 255°
2026-05-07 01:35 43.04175 -81.35384 5040 ft 277 kts 252°
2026-05-07 01:35 43.03520 -81.37894 5022 ft 282 kts 249°
2026-05-07 01:36 43.02972 -81.39753 4962 ft 253 kts 248°